Simultaneous Nadir Overpasses (SNOs) Predictions

Prediction of SNOs between AQUA and NOAA-19 Satellite Orbit:

Table of predicted SNOs for the next 14.0 days since TLE Epoch: 2/14/2014
Index Date (AQUA) Time (AQUA) Lat,Lon (AQUA) SZA (AQUA ) Date (NOAA-19) Time (NOAA-19) Lat,Lon (NOAA-19) SZA (NOAA-19 ) Distance(km) Time Diff (sec)
1 02/15/2014 22:25:16 72.50,-159.45 84.98 02/15/2014 22:25:14 72.51,-159.49 84.99 1.30 2
2 02/18/2014 03:09:38 72.68, 129.14 84.39 02/18/2014 03:09:19 72.67, 129.19 84.39 1.86 19
3 02/18/2014 03:58:33 -71.05, -60.38 97.33 02/18/2014 03:59:46 -71.06, -60.45 97.33 2.38 73
4 02/20/2014 07:54:03 73.05, 57.35 84.00 02/20/2014 07:53:28 73.04, 57.41 84.00 1.98 35
5 02/20/2014 08:42:52 -71.10,-131.54 98.07 02/20/2014 08:43:49 -71.09,-131.50 98.07 1.24 57
6 02/22/2014 12:38:31 73.61, -14.88 83.81 02/22/2014 12:37:41 73.61, -14.90 83.83 0.98 50
7 02/22/2014 13:27:16 -71.46, 156.82 98.49 02/22/2014 13:27:58 -71.45, 156.87 98.50 2.17 42
8 02/24/2014 17:22:54 73.94, -86.67 83.36 02/24/2014 17:21:49 73.94, -86.70 83.38 1.15 65
9 02/24/2014 18:11:44 -72.06, 84.71 98.66 02/24/2014 18:12:12 -72.06, 84.72 98.67 0.36 28
10 02/26/2014 22:11:11 81.79, 136.27 96.15 02/26/2014 22:09:58 81.04, 136.86 95.89 83.45 73




NCC Satellite Simultaneous Nadir Overpasses (SNOs) Prediction Service
